{"data":{"norad_id":57825,"epoch":"2026-05-25T01:51:20.276928Z","epoch_age_seconds":69126,"freshness":"FRESH","line1":"1 57825U 23138T   26145.07731802  .00000703  00000+0  35062-4 0  9999","line2":"2 57825  43.0017 162.5421 0001518 270.8615  89.2062 15.27572016150312","mean_motion":15.27572016,"eccentricity":0.0001518,"inclination_deg":43.0017,"raan_deg":162.5421,"arg_perigee_deg":270.8615,"mean_anomaly_deg":89.2062,"bstar":3.5062e-5,"rev_number":15031,"period_min":94.267241407753,"perigee_km":482.03147143354,"apogee_km":484.11453479048,"semimajor_km":6861.210003112,"source":"CELESTRAK","updated_at":"2026-05-25T13:38:18.411913Z"}}